Regional Weather Roundup
Issued by NWS Charleston, SC

Current Version | Previous Version | Graphics & Text | Print | Product List | Glossary On
Versions: 1 2 3 4 5 6 7 8 9 10 11 12 13 14 15 16 17 18 19 20 21 22 23 24 25 26 27 28 29 30 31 32 33 34 35 36 37 38 39 40 41 42 43 44 45 46 47 48 49 50
000
ASUS42 KCHS 010327
RWRCHS

REGIONAL WEATHER ROUNDUP
NATIONAL WEATHER SERVICE CHARLESTON SC
1100 PM EDT MON AUG 31 2015

NOTE: "FAIR" INDICATES FEW OR NO CLOUDS BELOW 12,000 FEET WITH NO
SIGNIFICANT WEATHER AND/OR OBSTRUCTIONS TO VISIBILITY.

NOT ALL STATIONS ARE QUALITY CONTROLLED BY THE NATIONAL
WEATHER SERVICE. USE DATA WITH CAUTION...ESPECIALLY
DEWPOINT OBSERVATIONS.

SCZ027-030-031-034>040-042>050-010400-
...SOUTHEAST SOUTH CAROLINA...

CITY           SKY/WX    TMP DP  RH WIND       PRES   REMARKS
N CHARLESTON   PTCLDY    77  73  87 CALM      30.09S
WATERFRONT PRK   N/A     81  74  79 CALM      30.06R
MOUNT PLEASANT LGT RAIN  75  75 100 CALM      30.09S
JOHNS ISLAND   FAIR      75  73  94 CALM      30.09S
PINOPOLIS        N/A     82  75  78 CALM      30.02R
MONCKS CORNER  FAIR      73  72  94 CALM      30.09S
SUMMERVILLE    FAIR      72  72 100 CALM      30.10S
BEAUFORT MCAS  PTCLDY    75  73  93 CALM      30.09S
BEAUFORT ARPT  FAIR      75  75 100 CALM      30.09S
HILTON HEAD IS CLEAR     75  75 100 MISG      30.11S
WALTERBORO     CLEAR     73  72  94 CALM      30.10S
ALLENDALE      FAIR      72  72 100 CALM      30.09S

...SOUTHERN MIDLANDS AND PEE DEE...

CITY           SKY/WX    TMP DP  RH WIND       PRES   REMARKS
GEORGETOWN     NOT AVBL
KINGSTREE      NOT AVBL
ORANGEBURG     PTCLDY    73  71  93 CALM      30.10R
BARNWELL       FAIR      73  72  94 CALM      30.11S
AIKEN          FAIR      70  68  94 CALM      30.14S
MANNING        FAIR      72  72 100 CALM      30.09F
COLUMBIA       PTCLDY    76  70  82 CALM      30.09R
SUMTER         CLEAR     75  70  85 S1        30.07S
FLORENCE       CLEAR     74  69  85 CALM      30.08R
MYRTLE BEACH   PTCLDY    75  72  88 CALM      30.09S
N MYRTLE BEACH CLEAR     75  73  93 CALM      30.07S FOG

$$

GAZ063-065-086>088-099>101-113>116-118-119-134>141-150-010400-
...SOUTHEAST GEORGIA...

CITY           SKY/WX    TMP DP  RH WIND       PRES   REMARKS
SAVANNAH ARPT  PTCLDY    75  72  90 CALM      30.10R
HUNTER AAF     CLEAR     76  76 100 CALM      30.07S
FORT STEWART   CLEAR     74  72  93 CALM      30.08R
STATESBORO     CLEAR     71  32  23 CALM      30.10S
SYLVANIA       CLEAR     72  72 100 CALM      30.11S FOG
CLAXTON        NOT AVBL

...CSRA...CENTRAL AND FAR SOUTHEAST GEORGIA...

CITY           SKY/WX    TMP DP  RH WIND       PRES   REMARKS
THOMSON        CLEAR     72  72 100 CALM      30.15S
AUGUSTA-BUSH   CLEAR     70  70 100 CALM      30.09R FOG
AUGUSTA-DANIEL CLEAR     81  68  64 CALM      30.11R
SWAINSBORO     FAIR     N/A N/A N/A CALM      30.11S
VIDALIA        CLEAR     73  72  94 CALM      30.11R
EASTMAN        FAIR      73  73 100 CALM      30.12S FOG
HAZLEHURST     FAIR      77  72  84 CALM      30.09S
ALMA           CLEAR     74  72  93 CALM      30.09R
WAYCROSS       PTCLDY    79  78  97 SE3       30.09S
JESUP          FAIR      79  77  94 CALM      30.10S
BAXLEY         FAIR      75  73  94 SE3       30.10R
BRUNSWICK      MOCLDY    77  75  94 CALM      30.10R
SAINT SIMONS   MOCLDY    81  76  84 SE3       30.08S

$$

SCZ027-028-034-036>038-045-046-048>050-GAZ119-141-010400-
...LAKE AND SUPPLEMENTAL COASTAL OBSERVATIONS...

STATION/POSITION TIME  TEMP    WIND        PRES    WAVE   SWELL
                       AIR SEA DIR/SP/G            HT/PER HT/PER/DIR
                 (UTC) (F)     (DEG/KT/KT) (MB)    (FT/S) (FT/S/D)
UPR LAKE MARION  NOT AVBL
WINYAH BAY       0200   76     310/  2     1017.0
LAKE MURRAY      0200   78     290/  1/  1 1017.9R
ACE BASIN NERRS  NOT AVBL
FORT PULASKI     0300   80 83   20/  4/  4 1019.5S
SAPELO ISLAND    0300   79        CALM     1019.0R

$$

ANZ835-935-AMZ111-154-330-350-352-354-370-450-454-472-010400-
...C-MAN AND BUOY OBSERVATIONS...

STATION/POSITION TIME  TEMP    WIND        PRES    WAVE   SWELL
                       AIR SEA DIR/SP/G            HT/PER HT/PER/DIR
                 (UTC) (F)     (DEG/KT/KT) (MB)    (FT/S) (FT/S/D)
BUOY 41004       0250   82 83  250/  6/  8 1018.2R   3/ 8   3/ 8
BUOY 41008       0250   82 84  150/  4/  6 1019.0R   3/ 9   3/110/ 9
FOLLY BEACH CMAN 0300   79     280/  3/  4 1018.9S
CAPERS NEARSHORE 0208   82     130/  2/  6 1018.6R
FRIPP NEARSHORE  0200   81     310/  6/  8 1018.5R


STATION/POSITION TIME  TEMP    WIND        PRES    WAVE   SWELL
                       AIR SEA DIR/SP/G            HT/PER HT/PER/DIR
                 (UTC) (F)     (DEG/KT/KT) (MB)    (FT/S) (FT/S/D)
5E ST. MARYS GA  0221      85                N/A     3/ 8
FRYING PAN BUOY  0250   81 81  250/ 12/ 16 1018.0R   4/ 6   3/180/ 6
BUOY 41025       0250   81 83  170/ 14/ 16 1018.2S   4/ 8   2/130/ 8
CAPE LOOKOUT NC  0300   79     160/ 12/ 13 1017.3F
BUOY 41002       0250   84 84  210/ 12/ 14 1019.6F   4/ 6   3/200/ 6
BUOY 41010       0220   85 85  170/  8/ 10 1019.3R
ST AUGUSTINE FL  0300   83 85  150/ 10/ 12 1019.0R


$$



USA.gov is the U.S. government's official web portal to all federal, state and local government web resources and services.